Weather in Coruna

Spain     43°21′40″N   8°24′38″W
temp.,
°C
wind,
m/s
gust,
m/s
humid.,
%
clouds,
%
prec.,
mm/h
press.,
hPa
HPBL,
m
2 december, thu
thu201:00+9nnw71392100 4.7 10191494
04:00+8n6118569 3.6 10191105
07:00+8n5118342 5.7 1020771
10:00+8n5108067 1.2 1023847
13:00+10n587231 1.5 10231421
16:00+10n47686 0.3 10231380
19:00+8n388064 0.4 1025521
22:00+8n279029 0.3 1026361
3 december, fri
fri301:00+8nnw148172 0.4 1026238
04:00+8sw128993 0.0 1026115
07:00+8ssw229096 0.0 102671
10:00+9ssw2690100 0.0 1026267
13:00+11ssw398215 0.1 1025500
16:00+13ssw4108013 0.0 1023728
19:00+10ssw4129133 0.0 1023576
22:00+12sw4128826 0.0 1022765
4 december, sat
sat401:00+13sw51292100 0.1 1020985
04:00+13w51295100 6.9 1019865
07:00+11nw489244 8.4 1023710
10:00+10wnw289395 0.4 1026479
13:00+11nw588561 1.4 1027950
16:00+10nw4879100 0.6 10271065
19:00+9wnw498298 1.1 1029700
22:00+9nw398397 0.5 1029695
5 december, sun
sun501:00+9nw4108393 1.1 1029713
04:00+9nw498793 0.8 1029725
07:00+9nw4108699 1.4 1029645
10:00+9nw4989100 0.8 1029850
13:00+11nw5984100 1.3 10291108
16:00+10nw51088100 0.9 10281056
19:00+10nnw5109083 1.6 1029904
22:00+10nnw499299 0.8 1029763
6 december, mon
mon601:00+10n2695100 1.6 1029539
04:00+9nne1296100 0.5 1029141
07:00+9sse019672 0.7 102974
10:00+9s019599 0.1 103075
13:00+12s118597 0.1 1029435
16:00+12ene01769 0.0 1027515
19:00+9sse11945 0.0 102729
22:00+8sse22934 0.0 102645